Akroken, Sweden

2:04 AM CET on February 28, 2017 (GMT +0100)
Kramfors Flygplats

Weather History for ESNK - August, 2013

Change the Weather History Date:

Thursday, August 29, 2013

  Actual Average Record
Temperature  
Mean Temperature 48 °F -  
Max Temperature 60 °F - - ()
Min Temperature 37 °F - - ()
Degree Days  
Heating Degree Days 16    
Moisture  
Dew Point 44 °F    
Average Humidity 82    
Maximum Humidity 100    
Minimum Humidity 45    
Precipitation  
Precipitation 0.00 in - - ()
Sea Level Pressure  
Sea Level Pressure 30.02 in    
Wind  
Wind Speed 3 mph ()    
Max Wind Speed 10 mph    
Max Gust Speed -    
Visibility 5.7 miles    
Events Fog , Rain    
T = Trace of Precipitation, MM = Missing Value Source: Averaged Metar Reports

Daily Weather History Graph

Daily Weather History Graph

Search for Another Location

Airport or City:

Trip Planner

Search our weather history database for the weather conditions in past years. The results will help you decide how hot, cold, wet, or windy it might be!

Date:

Astronomy

Aug. 29, 2013 Rise Set
Actual Time 5:26 AM CEST 8:11 PM CEST
Civil Twilight 4:34 AM CEST 9:02 PM CEST
Nautical Twilight 3:21 AM CEST 10:14 PM CEST
Astronomical Twilight 1:22 AM CEST 12:17 AM CEST
Moon 10:46 PM CEST (8/29) 4:31 PM CEST (8/29)
Length of Visible Light 16h 28m
Length of Day
14h 44m
Last Quarter, 40% of the Moon is Illuminated
Aug 29
Last Quarter
Sep 5
New
Sep 12
First Quarter
Sep 19
Full
Sep 27
Last Quarter

Hourly Weather History & Observations

Time (CEST) Temp. Windchill Dew Point Humidity Pressure Visibility Wind Dir Wind Speed Gust Speed Precip Events Conditions
12:20 AM 44.6 °F - 42.8 °F 93% 30.04 in 6.2 mi ESE 1.2 mph - N/A   Unknown
12:50 AM 44.6 °F - 42.8 °F 93% 30.04 in 6.2 mi ESE 1.2 mph - N/A   Unknown
1:20 AM 44.6 °F - 42.8 °F 93% 30.04 in 6.2 mi Variable 2.3 mph - N/A   Unknown
1:50 AM 42.8 °F - 42.8 °F 100% 30.04 in 6.2 mi NE 1.2 mph - N/A   Unknown
2:20 AM 42.8 °F - 41.0 °F 93% 30.04 in 6.2 mi Calm Calm - N/A   Unknown
2:50 AM 41.0 °F - 41.0 °F 100% 30.04 in 6.2 mi East 1.2 mph - N/A   Unknown
3:20 AM 39.2 °F - 37.4 °F 93% 30.04 in 6.2 mi Calm Calm - N/A   Unknown
3:50 AM 41.0 °F - 39.2 °F 93% 30.04 in 3.1 mi Variable 2.3 mph - N/A   Unknown
4:20 AM 39.2 °F 37.0 °F 37.4 °F 93% 30.04 in 0.7 mi Variable 3.5 mph - N/A   Unknown
4:50 AM 37.4 °F 33.8 °F 37.4 °F 100% 30.04 in 0.7 mi NNW 4.6 mph - N/A   Mostly Cloudy
5:20 AM 39.2 °F 35.9 °F 37.4 °F 93% 30.04 in 2.5 mi NW 4.6 mph - N/A   Scattered Clouds
5:50 AM 39.2 °F 35.9 °F 37.4 °F 93% 30.04 in 6.2 mi NNW 4.6 mph - N/A   Scattered Clouds
6:20 AM 39.2 °F 37.0 °F 37.4 °F 93% 30.04 in 6.2 mi NW 3.5 mph - N/A Fog Patches of Fog
6:50 AM 41.0 °F - 39.2 °F 93% 30.04 in 6.2 mi Variable 2.3 mph - N/A Fog Patches of Fog
7:20 AM 42.8 °F 41.1 °F 41.0 °F 93% 30.04 in 6.2 mi Variable 3.5 mph - N/A   Partly Cloudy
7:50 AM 44.6 °F 43.1 °F 42.8 °F 93% 30.04 in 6.2 mi NW 3.5 mph - N/A   Partly Cloudy
8:20 AM 44.6 °F - 42.8 °F 93% 30.04 in - Variable 2.3 mph - N/A   Clear
8:50 AM 46.4 °F - 42.8 °F 87% 30.04 in - Variable 2.3 mph - N/A   Clear
9:20 AM 50.0 °F - 44.6 °F 82% 30.04 in - NNW 4.6 mph - N/A   Clear
9:50 AM 51.8 °F - 44.6 °F 76% 30.04 in - North 5.8 mph - N/A   Clear
10:20 AM 53.6 °F - 44.6 °F 72% 30.04 in - North 4.6 mph - N/A   Clear
10:50 AM 55.4 °F - 44.6 °F 67% 30.04 in 6.2 mi Variable 1.2 mph - N/A   Unknown
11:20 AM 57.2 °F - 44.6 °F 63% 30.01 in 6.2 mi Variable 3.5 mph - N/A   Unknown
11:50 AM 59.0 °F - 41.0 °F 51% 30.01 in 6.2 mi NE 2.3 mph - N/A   Scattered Clouds
12:20 PM 59.0 °F - 39.2 °F 48% 30.01 in 6.2 mi NNW 4.6 mph - N/A   Partly Cloudy
12:50 PM 60.8 °F - 41.0 °F 48% 30.01 in 6.2 mi WNW 4.6 mph - N/A   Mostly Cloudy
1:20 PM 59.0 °F - 41.0 °F 51% 30.01 in 6.2 mi North 4.6 mph - N/A   Scattered Clouds
1:50 PM 59.0 °F - 37.4 °F 45% 30.01 in - West 9.2 mph - N/A   Clear
2:20 PM 59.0 °F - 42.8 °F 55% 30.01 in 6.2 mi West 4.6 mph - N/A   Partly Cloudy
2:50 PM 60.8 °F - 42.8 °F 52% 30.01 in 6.2 mi West 6.9 mph - N/A   Scattered Clouds
3:20 PM 55.4 °F - 44.6 °F 67% 30.01 in 6.2 mi NNW 10.4 mph - N/A   Mostly Cloudy
4:20 PM 55.4 °F - 46.4 °F 72% 30.01 in - North 3.5 mph - N/A   Clear
4:50 PM 55.4 °F - 46.4 °F 72% 30.01 in - Calm Calm - N/A   Clear
5:20 PM 55.4 °F - 46.4 °F 72% 30.01 in 6.2 mi West 3.5 mph - N/A   Unknown
5:50 PM 53.6 °F - 46.4 °F 77% 30.01 in 6.2 mi North 3.5 mph - N/A   Light Drizzle
6:20 PM 53.6 °F - 48.2 °F 82% 30.01 in 6.2 mi Variable 2.3 mph - N/A   Light Drizzle
6:50 PM 53.6 °F - 48.2 °F 82% 30.01 in 6.2 mi NNE 3.5 mph - N/A Rain Light Rain
7:20 PM 51.8 °F - 48.2 °F 88% 29.98 in 6.2 mi NE 4.6 mph - N/A   Light Drizzle
7:50 PM 51.8 °F - 50.0 °F 94% 30.01 in 6.2 mi Variable 1.2 mph - N/A   Light Drizzle
8:20 PM 51.8 °F - 50.0 °F 94% 30.01 in 6.2 mi NNW 3.5 mph - N/A   Light Drizzle
8:50 PM 50.0 °F - 48.2 °F 94% 30.01 in 6.2 mi WNW 2.3 mph - N/A   Light Drizzle
9:20 PM 50.0 °F - 50.0 °F 100% 30.01 in 6.2 mi NW 3.5 mph - N/A   Drizzle
9:50 PM 50.0 °F - 48.2 °F 94% 30.01 in 6.2 mi Calm Calm - N/A   Light Drizzle
10:20 PM 50.0 °F - 48.2 °F 94% 30.01 in 5.6 mi SSW 1.2 mph - N/A   Drizzle
10:50 PM 50.0 °F - 48.2 °F 94% 30.01 in 5.6 mi Calm Calm - N/A   Drizzle
11:20 PM 50.0 °F - 48.2 °F 94% 30.01 in 5.0 mi Calm Calm - N/A   Drizzle
11:50 PM 50.0 °F - 50.0 °F 100% 30.01 in 6.2 mi Variable 2.3 mph - N/A   Drizzle